TimeCDT,TemperatureF,Dew PointF,Humidity,Sea Level PressureIn,VisibilityMPH,Wind Direction,Wind SpeedMPH,Gust SpeedMPH,PrecipitationIn,Events,Conditions,WindDirDegrees,DateUTC
12:15 AM,35.6,35.6,100,30.09,8.0,East,11.5,-,N/A,,Overcast,80,2012-10-29 05:15:00
12:35 AM,35.6,35.6,100,30.09,8.0,ENE,9.2,-,N/A,,Overcast,70,2012-10-29 05:35:00
12:55 AM,35.6,35.6,100,30.09,8.0,ENE,10.4,-,N/A,,Mostly Cloudy,70,2012-10-29 05:55:00
1:35 AM,35.6,35.6,100,30.08,9.0,East,11.5,-,N/A,,Overcast,100,2012-10-29 06:35:00
1:55 AM,35.6,35.6,100,30.08,10.0,ENE,8.1,-,N/A,,Overcast,70,2012-10-29 06:55:00
2:15 AM,35.6,35.6,100,30.08,9.0,East,8.1,-,N/A,,Overcast,90,2012-10-29 07:15:00
2:35 AM,35.6,35.6,100,30.08,10.0,East,9.2,-,N/A,,Overcast,100,2012-10-29 07:35:00
2:55 AM,35.6,35.6,100,30.07,10.0,East,9.2,-,N/A,,Overcast,90,2012-10-29 07:55:00
3:35 AM,35.6,35.6,100,30.06,10.0,East,10.4,-,N/A,,Mostly Cloudy,90,2012-10-29 08:35:00
4:15 AM,35.6,35.6,100,30.07,10.0,East,9.2,-,N/A,,Overcast,90,2012-10-29 09:15:00
4:35 AM,35.6,35.6,100,30.07,10.0,East,11.5,-,N/A,,Overcast,90,2012-10-29 09:35:00
4:55 AM,35.6,35.6,100,30.07,10.0,East,10.4,-,N/A,,Overcast,100,2012-10-29 09:55:00
5:15 AM,35.6,35.6,100,30.07,10.0,East,9.2,-,N/A,,Overcast,100,2012-10-29 10:15:00
5:35 AM,35.6,35.6,100,30.08,10.0,East,8.1,-,N/A,,Overcast,90,2012-10-29 10:35:00
5:55 AM,35.6,35.6,100,30.07,10.0,East,8.1,-,N/A,,Overcast,90,2012-10-29 10:55:00
6:15 AM,35.6,35.6,100,30.06,10.0,East,12.7,-,N/A,,Overcast,90,2012-10-29 11:15:00
6:35 AM,33.8,33.8,100,30.07,10.0,East,10.4,-,N/A,,Overcast,100,2012-10-29 11:35:00
6:55 AM,33.8,33.8,100,30.07,8.0,East,10.4,-,N/A,,Mostly Cloudy,100,2012-10-29 11:55:00
7:15 AM,32.0,32.0,100,30.08,7.0,East,10.4,-,N/A,,Mostly Cloudy,100,2012-10-29 12:15:00
7:35 AM,32.0,32.0,100,30.09,7.0,East,11.5,-,N/A,,Partly Cloudy,100,2012-10-29 12:35:00
7:55 AM,32.0,32.0,100,30.08,7.0,East,10.4,-,N/A,,Clear,100,2012-10-29 12:55:00
8:15 AM,33.8,33.8,100,30.09,9.0,East,10.4,-,N/A,,Clear,100,2012-10-29 13:15:00
8:35 AM,35.6,35.6,100,30.09,10.0,East,8.1,-,N/A,,Clear,100,2012-10-29 13:35:00
8:55 AM,37.4,35.6,93,30.10,10.0,East,10.4,-,N/A,,Clear,100,2012-10-29 13:55:00
9:15 AM,39.2,35.6,87,30.10,10.0,ESE,10.4,-,N/A,,Clear,120,2012-10-29 14:15:00
9:35 AM,41.0,35.6,81,30.11,10.0,SE,9.2,-,N/A,,Clear,130,2012-10-29 14:35:00
9:55 AM,41.0,35.6,81,30.11,10.0,SE,10.4,-,N/A,,Clear,140,2012-10-29 14:55:00
10:15 AM,44.6,35.6,71,30.10,10.0,SSE,12.7,-,N/A,,Clear,150,2012-10-29 15:15:00
10:35 AM,44.6,35.6,71,30.10,10.0,South,11.5,-,N/A,,Clear,170,2012-10-29 15:35:00
10:55 AM,46.4,33.8,62,30.10,10.0,SSE,11.5,-,N/A,,Clear,160,2012-10-29 15:55:00
11:15 AM,46.4,33.8,62,30.10,10.0,South,10.4,-,N/A,,Clear,170,2012-10-29 16:15:00
11:55 AM,48.2,33.8,58,30.09,10.0,SSE,10.4,-,N/A,,Scattered Clouds,160,2012-10-29 16:55:00
12:15 PM,48.2,33.8,58,30.09,10.0,SSE,9.2,-,N/A,,Mostly Cloudy,160,2012-10-29 17:15:00
12:55 PM,50.0,33.8,54,30.09,10.0,SE,10.4,-,N/A,,Clear,130,2012-10-29 17:55:00
1:15 PM,50.0,33.8,54,30.08,10.0,SSE,11.5,-,N/A,,Clear,150,2012-10-29 18:15:00
1:35 PM,50.0,33.8,54,30.08,10.0,SE,12.7,-,N/A,,Clear,130,2012-10-29 18:35:00
1:55 PM,50.0,33.8,54,30.08,10.0,SSE,9.2,-,N/A,,Clear,160,2012-10-29 18:55:00
2:15 PM,51.8,33.8,50,30.08,10.0,SSE,9.2,18.4,N/A,,Clear,160,2012-10-29 19:15:00
2:35 PM,53.6,33.8,47,30.07,10.0,SE,13.8,-,N/A,,Clear,140,2012-10-29 19:35:00
2:55 PM,51.8,33.8,50,30.08,10.0,SSE,11.5,16.1,N/A,,Clear,160,2012-10-29 19:55:00
3:15 PM,51.8,33.8,50,30.07,10.0,SE,12.7,-,N/A,,Clear,140,2012-10-29 20:15:00
3:35 PM,51.8,33.8,50,30.08,10.0,SE,10.4,-,N/A,,Clear,140,2012-10-29 20:35:00
4:15 PM,51.8,33.8,50,30.07,10.0,ESE,10.4,-,N/A,,Clear,120,2012-10-29 21:15:00
4:35 PM,50.0,33.8,54,30.07,10.0,ESE,9.2,-,N/A,,Clear,120,2012-10-29 21:35:00
4:55 PM,48.2,33.8,58,30.07,10.0,ESE,10.4,-,N/A,,Clear,110,2012-10-29 21:55:00
5:15 PM,44.6,33.8,66,30.07,10.0,East,10.4,-,N/A,,Clear,100,2012-10-29 22:15:00
5:35 PM,42.8,33.8,70,30.07,10.0,East,10.4,-,N/A,,Clear,100,2012-10-29 22:35:00
5:55 PM,41.0,33.8,76,30.08,10.0,ESE,10.4,-,N/A,,Clear,110,2012-10-29 22:55:00
6:15 PM,39.2,33.8,81,30.08,10.0,ESE,10.4,-,N/A,,Scattered Clouds,120,2012-10-29 23:15:00
6:35 PM,39.2,33.8,81,30.08,10.0,ESE,12.7,-,N/A,,Mostly Cloudy,110,2012-10-29 23:35:00
6:55 PM,39.2,32.0,75,30.08,10.0,ESE,11.5,-,N/A,,Scattered Clouds,110,2012-10-29 23:55:00
9:55 PM,39.2,35.6,87,30.09,10.0,ESE,9.2,-,N/A,,Scattered Clouds,110,2012-10-30 02:55:00
10:15 PM,39.2,35.6,87,30.09,10.0,ESE,10.4,-,N/A,,Clear,110,2012-10-30 03:15:00
10:35 PM,39.2,35.6,87,30.09,10.0,ESE,12.7,-,N/A,,Partly Cloudy,110,2012-10-30 03:35:00
10:55 PM,39.2,35.6,87,30.09,10.0,East,11.5,-,N/A,,Mostly Cloudy,100,2012-10-30 03:55:00
11:15 PM,39.2,35.6,87,30.09,10.0,East,11.5,-,N/A,,Scattered Clouds,90,2012-10-30 04:15:00
11:35 PM,39.2,35.6,87,30.10,10.0,East,10.4,-,N/A,,Mostly Cloudy,100,2012-10-30 04:35:00
11:55 PM,39.2,35.6,87,30.11,10.0,ENE,3.5,-,N/A,,Overcast,70,2012-10-30 04:55:00